EW3804 Weather Reports


Display with metric or nautical units.
time (UTC)temp
F
wind
direction
speed
MPH
gust
MPH
rain 1hr
in
rain 24hr
in
rain mn
in
humidity
%
barometer
mb
20260508204521 71 161 0.0 0.0 0.00 0.00 0.00 84 1003.4
20260508203024 71 146 0.0 0.0 0.00 0.00 0.00 83 1003.4
20260508201517 71 136 0.0 0.0 0.00 0.00 0.00 84 1003.6
20260508200014 71 129 0.0 0.0 0.00 0.00 0.00 84 1003.7
20260508194510 70 97 0.0 0.0 0.00 0.00 0.00 84 1003.8
20260508193009 70 115 0.0 0.0 0.00 0.00 0.00 84 1004.0
20260508191506 70 125 0.0 0.0 0.00 0.00 0.00 84 1004.1
20260508190005 69 107 0.0 0.0 0.00 0.00 0.00 84 1004.3
20260508184504 69 115 0.0 0.0 0.00 0.00 0.00 83 1004.4
20260508183001 69 117 0.0 0.0 0.00 0.00 0.00 82 1004.6
20260508181658 68 120 0.0 1.0 0.00 0.00 0.00 83 1004.8
20260508180058 67 49 0.0 1.0 0.00 0.00 0.00 84 1005.2
20260508174554 67 113 0.0 1.0 0.00 0.00 0.00 84 1005.5
20260508173052 67 110 0.0 1.0 0.00 0.00 0.00 84 1005.8
20260508171549 67 107 0.0 1.0 0.00 0.00 0.00 83 1006.0
20260508170048 68 141 0.0 1.0 0.00 0.00 0.00 83 1006.3
20260508164547 68 109 0.0 1.0 0.00 0.00 0.00 82 1006.3
20260508163059 67 101 0.0 0.0 0.00 0.00 0.00 82 1006.3
20260508161554 67 127 0.0 1.0 0.00 0.00 0.00 81 1006.4
20260508160044 67 115 0.0 0.0 0.00 0.00 0.00 81 1006.4
20260508154542 67 63 0.0 1.0 0.00 0.00 0.00 80 1006.4
20260508153054 67 74 0.0 1.0 0.00 0.00 0.00 80 1006.2
20260508151538 66 51 0.0 0.0 0.00 0.00 0.00 81 1006.4
20260508150036 65 14 0.0 1.0 0.00 0.00 0.00 84 1006.5
20260508144536 65 41 0.0 0.0 0.00 0.00 0.00 81 1006.8
20260508143055 64 29 0.0 0.0 0.00 0.00 0.00 83 1006.8
20260508141536 63 112 0.0 0.0 0.00 0.00 0.00 82 1006.8
20260508140031 64 302 0.0 1.0 0.00 0.00 0.00 83 1006.8
20260508134535 63 242 0.0 1.0 0.00 0.00 0.00 83 1007.0
20260508133026 62 140 0.0 1.0 0.00 0.00 0.00 85 1007.3
20260508131526 62 141 0.0 0.0 0.00 0.00 0.00 85 1007.1
20260508130024 62 141 0.0 1.0 0.00 0.00 0.00 85 1007.0
20260508124528 62 141 0.0 0.0 0.00 0.00 0.00 87 1006.8
20260508123023 0 0.0 0.0 0.00 0.00 0.00 1006.5
20260508121516 0 0.0 0.0 0.00 0.00 0.00 1006.5
20260508120011 0 0.0 0.0 0.00 0.00 0.00 1007.0
20260508114506 0 0.0 0.0 0.00 0.00 0.00 1007.0
20260508113002 0 0.0 0.0 0.00 0.00 0.00 1007.1
20260508111601 0 0.0 0.0 0.00 0.00 0.00 1007.0
20260508104551 0 0.0 0.0 0.00 0.00 0.00 1006.9
20260508103049 0 0.0 0.0 0.00 0.00 0.00 1007.1
20260508101542 0 0.0 0.0 0.00 0.00 0.00 1007.2
20260508100056 0 0.0 0.0 0.00 0.00 0.00 1007.8
20260508094540 58 321 0.0 0.0 0.00 0.00 0.00 94 1008.2
20260508093037 58 321 0.0 0.0 0.00 0.00 0.00 94 1008.1
20260508091533 57 321 0.0 0.0 0.00 0.00 0.00 94 1007.9
20260508090037 56 303 0.0 1.0 0.00 0.00 0.00 94 1007.9
20260508084530 56 319 0.0 1.0 0.00 0.00 0.00 94 1007.4
20260508083029 56 23 0.0 2.0 0.00 0.00 0.00 94 1007.1
20260508081528 56 314 0.0 2.0 0.00 0.00 0.00 93 1007.1
20260508080031 56 314 0.0 0.0 0.00 0.00 0.00 93 1007.3
20260508074524 56 314 0.0 0.0 0.00 0.00 0.00 93 1007.5
20260508073022 56 315 1.0 2.0 0.00 0.00 0.00 92 1007.9
20260508071521 57 314 0.0 0.0 0.00 0.00 0.00 92 1007.7
20260508070019 58 314 0.0 0.0 0.00 0.00 0.00 92 1007.8
20260508064516 57 314 0.0 1.0 0.00 0.00 0.00 92 1008.0
20260508063015 58 314 0.0 1.0 0.00 0.00 0.00 93 1008.1
20260508061513 58 314 0.0 0.0 0.00 0.00 0.00 94 1008.2
20260508060019 58 314 0.0 0.0 0.00 0.00 0.00 93 1008.0
20260508054518 58 314 0.0 0.0 0.00 0.00 0.00 93 1008.0
20260508053008 58 314 0.0 1.0 0.00 0.00 0.00 93 1008.0
20260508051505 58 322 1.0 2.0 0.00 0.00 0.00 93 1008.4
20260508050003 58 266 0.0 2.0 0.00 0.00 0.00 93 1008.8
20260508044558 59 266 1.0 2.0 0.00 0.00 0.00 91 1008.5
20260508043059 61 266 0.0 0.0 0.00 0.00 0.00 91 1008.3
20260508041552 61 266 0.0 1.0 0.00 0.00 0.00 90 1008.4
20260508040045 61 266 0.0 1.0 0.00 0.00 0.00 91 1008.5
20260508034547 61 266 0.0 1.0 0.00 0.00 0.00 90 1008.7
20260508033036 61 266 0.0 1.0 0.00 0.00 0.00 91 1008.4
20260508031534 61 266 0.0 1.0 0.00 0.00 0.00 91 1007.9
20260508030027 61 266 0.0 1.0 0.00 0.00 0.00 92 1008.0
20260508024525 61 266 0.0 1.0 0.00 0.00 0.00 92 1007.6
20260508023018 61 266 0.0 2.0 0.00 0.00 0.00 92 1007.6
20260508020009 62 266 0.0 0.0 0.00 0.00 0.00 91 1007.6
20260508014505 62 266 0.0 0.0 0.00 0.00 0.00 89 1007.5
20260508013104 63 266 0.0 0.0 0.00 0.00 0.00 85 1007.5
20260508011610 64 266 0.0 1.0 0.00 0.00 0.00 88 1007.8
20260508004549 64 266 0.0 1.0 0.00 0.00 0.00 87 1008.1
20260508003048 63 256 0.0 3.0 0.00 0.00 0.00 87 1008.6
20260508001541 64 53 0.0 2.0 0.00 0.00 0.00 85 1007.2
20260508000036 65 308 0.0 2.0 0.00 0.00 0.00 77 1008.1
20260507234532 65 124 0.0 3.0 0.00 0.00 0.00 74 1007.8
20260507233028 66 141 0.0 2.0 0.00 0.00 0.00 73 1008.2
20260507231523 67 303 0.0 1.0 0.00 0.00 0.00 73 1008.4
20260507230024 67 38 0.0 4.0 0.00 0.00 0.00 72 1008.2
20260507224516 67 329 0.0 3.0 0.00 0.00 0.00 70 1008.9
20260507223010 67 98 0.0 3.0 0.00 0.00 0.00 69 1008.4
20260507221508 67 113 0.0 1.0 0.00 0.00 0.00 66 1008.8
20260507220003 67 300 0.0 1.0 0.00 0.00 0.00 70 1008.9
20260507214556 66 314 0.0 2.0 0.00 0.00 0.00 71 1009.0
20260507213052 66 131 0.0 1.0 0.00 0.00 0.00 70 1009.5
20260507211553 66 141 0.0 3.0 0.00 0.00 0.00 68 1009.5
20260507210043 66 46 0.0 5.0 0.00 0.00 0.00 70 1008.6